Location: Dvur Kralove nad Labem
(50.4330°N, 15.8170°E)
Time: 22:40:53
(UTC+02:00)

ISS - Pass Details

Date: 23 May 2022
Orbit: 414 x 420 km, 51.6° (Epoch: 30 June)

Event Time Altitude Azimuth Distance (km) Brightness Sun altitude
Rises 21:32:03 0° 276° (W) 2,370 1.0 -6.2°
Reaches altitude 10° 21:34:10 10° 279° (W) 1,504 0.0 -6.4°
Maximum altitude 21:37:32 70° 3° (N) 449 -3.5 -6.8°
Drops below altitude 10° 21:40:53 10° 88° (E) 1,497 -1.4 -7.2°
Enters shadow 21:42:25 - 91° (E) 2,123 -0.6 -7.4°
